Other Public Products
Issued by NWS Grand Forks, ND

Home | Current Version | Previous Version | Graphics & Text | Print | Product List | Glossary On
Versions: 1 2 3 4 5 6 7 8 9 10 11 12 13 14 15 16 17 18 19 20 21 22 23 24 25 26 27 28 29 30 31 32 33 34 35 36 37 38 39 40 41 42 43 44 45 46 47 48 49 50
402
FPUS83 KFGF 071410
OPUFGF
PRAIRIE TO PINES WEATHER ROUNDUP
NATIONAL WEATHER SERVICE EASTERN NORTH DAKOTA/GRAND FORKS ND
800 AM CST WED DEC 07 2016

 **SATELLITE DATA USED TO AUGMENT SKY COVER AT AUTOMATED STATIONS**
 *****  WEATHER ACROSS EASTERN NORTH DAKOTA  *****

CITY           SKY/WX    TMP DP  RH WIND       PRES   REMARKS
GRAND FORKS    LGT SNOW  15  10  80 NW26G33   29.91R BLWGSNOWWCI  -4
GRAND FORKS AF LGT SNOW  14   9  79 NW26G33   29.91R WCI  -6
GRAND CITY NWS   N/A     14 N/A N/A NW12        N/A  WCI   0
BUXTON         NOT AVBL
DEVILS LAKE    LGT SNOW   9   4  80 NW31G41   29.96R WCI -14
FARGO          CLOUDY    14   6  70 W23G36    29.98R WCI  -5
WAHPETON ARPT  CLOUDY    12   5  73 W22G29    30.02R WCI  -7
$$

 *****  WEATHER ACROSS CENTRAL AND WESTERN NORTH DAKOTA  *****

CITY           SKY/WX    TMP DP  RH WIND       PRES   REMARKS
JAMESTOWN      LGT SNOW   9   5  84 NW29G43   30.03R FOG     WCI -13
BISMARCK       CLOUDY     6   0  76 NW23G32   30.20R WCI -15
MINOT          LGT SNOW   5   0  79 W36G44    30.14R WCI -21
MINOT AFB      LGT SNOW   3  -1  82 NW33G45   30.12R VSB 3/4 WCI -22
GARRISON         N/A      1  -4  79 NW31G38   30.16R WCI -25
WILLISTON      CLOUDY    -1  -9  68 NW14G21   30.34R WCI -20
DICKINSON      MIX PCPN   0  -5  79 NW30G37   30.21R WCI -26
HETTINGER      CLOUDY     3  -3  76 NW23G31   30.25R WCI -19
$$

 *****  OTHER OBSERVATIONS NORTHEAST NORTH DAKOTA  *****

CITY           SKY/WX    TMP DP  RH WIND       PRES   REMARKS
WALHALLA         N/A     16  16 100 NW23G30   29.88R FOG     WCI  -2
LANGDON        LGT SNOW  10   9  92 NW31      29.88R VSB 1   WCI -12
CAVALIER         N/A     16  10  79 NW23G35   29.87R HAZE    WCI  -2
GRAFTON        FAIR      16  10  79 NW25G38   29.90R FOG     WCI  -3
CANDO          LGT SNOW   9   5  85 NW26G32   29.99R WCI -13
FORT TOTTEN      N/A      9   7  92 NW15      29.95S WCI  -8
ROLLA          LGT SNOW   9   7  92 NW32G41   29.95R VSB 3/4 WCI -15
RUGBY            N/A      5   1  85 NW31      30.04R FOG     WCI -19
 ***** THE ABOVE OBSERVATIONS ARE NON NWS ARE NOT QUALITY
        CONTROLLED AND MAY MIS-REPORT RAIN FOR SNOW...
$$

 *****  OTHER OBSERVATIONS SOUTHEAST NORTH DAKOTA *****

CITY           SKY/WX    TMP DP  RH WIND       PRES   REMARKS
COOPERSTOWN    LGT SNOW   9   5  85 NW36G44   29.96R VSB 3/4 WCI -16
VALLEY CITY    LGT SNOW   9   7  92 NW31G46   30.01R WCI -14
OAKES          NOT AVBL
GWINNER        CLOUDY    12  10  92 W17G31    30.04S WCI  -5
SHEYENNE NWR     N/A     11   4  72 NW20      29.95S WCI  -7
BUFFALO        NOT AVBL
WYNDMERE       NOT AVBL
 ***** THE ABOVE OBSERVATIONS ARE NON NWS ARE NOT QUALITY
       CONTROLLED AND MAY MIS-REPORT RAIN FOR SNOW...
$$

  *****  WEATHER ACROSS NORTHERN MINNESOTA  *****

CITY           SKY/WX    TMP DP  RH WIND       PRES   REMARKS
FLAG ISLAND    CLOUDY    25  21  86 NW20G26   29.64R WCI  11
WARROAD        CLOUDY    21  18  86 W15       29.68R WCI   8
ROSEAU         CLOUDY    21  18  86 W17G23    29.71R WCI   7
HALLOCK        LGT SNOW  18  16  93 NW30      29.81R WCI  -2
THF RVR FALLS  LGT SNOW  14  11  87 W23       29.83R VSB 1   WCI  -5
HALSTAD          N/A     14  10  85 NW22        N/A  WCI  -4
FOSSTON        LGT SNOW  12  10  92 W20G28    29.84R WCI  -6
BAUDETTE       LGT SNOW  20  17  88 W16G24    29.64R FOG     WCI   6
WASKISH        CLOUDY    19  16  86 W22G31    29.70R WCI   3
CROOKSTON      LGT SNOW  16  12  86 NW29G35   29.88R VSB 1   WCI  -4
$$
  *****  WEATHER ACROSS CENTRAL AND WEST MINNESOTA  *****

CITY           SKY/WX    TMP DP  RH WIND       PRES   REMARKS
BEMIDJI        LGT SNOW  14  10  85 W21G26    29.77R WCI  -4
PARK RAPIDS    LGT SNOW  13   6  74 W20       29.83R WCI  -5
WADENA         LGT SNOW  10   7  85 W18G28    29.88R WCI  -8
DETROIT LAKES  LGT SNOW  12  10  92 W22G28    29.90R WCI  -7
MOORHEAD       CLOUDY    12   7  79 W21       29.98R WCI  -6
FERGUS FALLS   LGT SNOW  10   7  85 W29       30.03R WCI -11
ELBOW LAKE     LGT SNOW  10   7  85 NW21G30   30.00R WCI  -9
MORRIS MN      FLURRIES  12   7  79 W25G35    30.01S WCI  -8
STAPLES        LGT SNOW  10   7  85 W20G25    29.88R WCI  -8
WHEATON        MOCLDY    12   7  79 W20G29    30.07R WCI  -6
$$
  *****  WEATHER ELSEWHERE ACROSS MINNESOTA  *****

CITY           SKY/WX    TMP DP  RH WIND       PRES   REMARKS
DULUTH         LGT SNOW  15  11  83 W21       29.71R BLWGSNOWWCI  -2
INTRNTL FALLS  LGT SNOW  23  20  88 W8G17     29.60R FOG     WCI  14
ELY            LGT SNOW  18  16  93 W12G20    29.59R WCI   5
CLOQUET        FLURRIES  16   9  73 SW14G24   29.75R WCI   1
BRAINERD       CLOUDY    13   7  77 W20G29    29.86R WCI  -5
HIBBING        LGT SNOW  16  13  88 W10G20    29.68R VSB 1   WCI   4
ALEXANDRIA     LGT SNOW  11   7  84 W22G33    29.96R VSB 1   WCI  -8
SAINT CLOUD    FLURRIES  15   8  73 W21       29.95R WCI  -2
MINNEAPOLIS    FLURRIES  17   9  70 SW15G24   29.99R WCI   2
$$

  *****  WEATHER ACROSS SOUTH DAKOTA  *****

CITY           SKY/WX    TMP DP  RH WIND       PRES   REMARKS
SIOUX FALLS    PTCLDY     9   3  77 W15G23    30.19R WCI  -8
BROOKINGS      CLEAR      7   2  80 W17       30.11R WCI -12
WATERTOWN      CLOUDY     7   2  80 W22G31    30.07R WCI -14
HURON          CLOUDY    10   3  73 NW22G29   30.20R WCI -10
SISSETON         N/A     11   4  73 NW26G33   30.05R WCI -10
ABERDEEN       CLOUDY     9   0  67 W23G31    30.15R WCI -11
MITCHELL       CLOUDY    12   4  70 W17       30.25R WCI  -5
PIERRE         CLOUDY     8   2  76 NW14G25   30.24R WCI  -8
MOBRIDGE       CLOUDY     9   0  67 NW29G39   30.18R WCI -13
RAPID CITY     CLOUDY     2  -5  72 NW15      30.24R WCI -17
$$

  *****  SOME WEATHER IN NEARBY STATES *****

CITY           SKY/WX    TMP DP  RH WIND       PRES   REMARKS
GLASGOW MT     PTCLDY    -1  -9  68 W24G33    30.42R WCI -25
GREAT FALLS MT CLOUDY    -3  -9  75 NW6       30.43R WCI -15
CHEYENNE WY    CLOUDY     0  -6  76 N13G20    30.02R WCI -18
SCOTTSBLUFF NE LGT SNOW   7   0  73 NW14      30.23R WCI -10
OMAHA NE       MOCLDY    16   6  65 NW16      30.26R WCI   1
DES MOINES IA  CLOUDY    18   9  68 NW12      30.20R WCI   5
DAVENPORT IA   CLOUDY    21  14  74 W14       30.14R WCI   8
CHICAGO IL     CLOUDY    24  16  71 W15G23    30.07R WCI  11
EAU CLAIRE WI  CLOUDY    16  10  77 SW15      29.95R WCI   1
LA CROSSE WI   CLOUDY    19  10  68 W13       30.06R WCI   6
$$

  *****  SOME NATIONAL WEATHER *****

CITY           SKY/WX    TMP DP  RH WIND       PRES   REMARKS
LA GUARDIA NY  CLOUDY    42  37  82 N6        29.99R
RALEIGH NC     MOSUNNY   44  41  89 CALM      30.05R
ATLANTA GA     MOSUNNY   46  42  86 NW9       30.04R
NEW ORLEANS LA CLOUDY    56  55  97 E5        30.10R
OKLAHOMA CITY  CLOUDY    34  20  56 E8        30.10R
ALBUQUERQUE NM CLOUDY    40  27  59 S7        29.96R
SALT LAKE CITY CLOUDY    23  15  71 N6        30.17R WCI  16
LOS ANGELES CA MOCLDY    52  39  61 NE6       30.04S
BOISE ID       CLOUDY    16  12  84 S3        30.29R
SEATTLE WA     CLEAR     29  22  75 N12       30.42R WCI  19
$$

*** WEATHER ACROSS MANITOBA...SASKATCHEWAN AND ONTARIO ***
                ***ONTARIO***

CITY           SKY/WX    TMP DP  RH WIND       PRES   REMARKS
GERALDTON      MOCLDY    18  16  93 S3        29.46S
THUNDER BAY    MOCLDY    23  19  86 W8        29.57R WCI  14
SIOUX LOOKOUT  LGT SNOW  23  21  93 NW9       29.49R WCI  13
TORONTO        CLOUDY    36  23  60 W13G21    29.91R
BIG TROUT LK   LGT SNOW  21  19  93 N10G17    29.75R VSB 1   WCI  10
PICKLE LAKE    LGT SNOW  19  16  86 N12G20    29.51R DRFTSNOWWCI   7
DRYDEN         LGT SNOW  23  21  93 W9        29.53R WCI  13
KENORA         LGT SNOW  23  21  93 NW12G17   29.60R WCI  12
$$
                *** MANITOBA***

CITY           SKY/WX    TMP DP  RH WIND       PRES   REMARKS
BRANDON        LGT SNOW  10   5  79 NW28G36   30.01R BLWGSNOWWCI -11
DAUPHIN        LGT SNOW  18  14  86 NW20G25   30.05R WCI   1
ISLAND LAKE    NOT AVBL
PILOT MOUND      N/A     10   9  92 NW26G33     N/A  WCI -11
THE PAS        CLOUDY    14   9  79 N18G28    30.22R WCI  -3
THOMPSON       LGT SNOW  10   7  85 N10G18    30.16R DRFTSNOWWCI  -3
WINNIPEG       FLURRIES  23  21  93 NW20      29.80R WCI   8
LYNN LAKE      LGT SNOW   3   1  92 N10G20    30.30R WCI -12
CHURCHILL      LGT SNOW  14  12  92 N25G35    30.25R VSB 1   WCI  -5
GILLAM         LGT SNOW  16  12  86 N22       30.08R WCI  -2
$$
                ***SASKATCHEWAN***

CITY           SKY/WX    TMP DP  RH WIND       PRES   REMARKS
ESTEVAN        LGT SNOW   0  -4  85 NW28      30.25R BLWGSNOWWCI -26
KINDERSLEY     PTCLDY    -8 -13  77 NW13      30.44R WCI -28
LLOYDMINSTER   FLURRIES  -6 -11  77 NW15      30.46R WCI -27
PRINCE ALBERT  FLURRIES   5   0  78 NW13G21   30.36R WCI -12
REGINA         CLOUDY     0  -6  78 NW21G29   30.32R WCI -23
YORKTON        FLURRIES   7   3  85 NW22      30.17R WCC1F1C2F2C3F3C4F4C5F5C6F6C7F7C8F8C9F9CaFaCbFbCcFcCdFdCe!



USA.gov is the U.S. government's official web portal to all federal, state and local government web resources and services.